Regional Weather Roundup
Issued by NWS

Current Version | Previous Version | Text Only | Print | Product List | Glossary On
Versions: 1 2 3 4 5 6 7 8 9 10 11 12 13 14 15 16 17 18 19 20 21 22 23 24 25 26 27 28 29 30 31 32 33 34 35 36 37 38 39 40 41 42 43 44 45 46 47 48 49 50
000
ASUS42 KTBW 040316
RWRFL
FLORIDA REGIONAL WEATHER ROUNDUP
NATIONAL WEATHER SERVICE TAMPA BAY RUSKIN FL
1100 PM EDT SUN MAY 03 2015

NOTE: "FAIR" INDICATES FEW OR NO CLOUDS BELOW 12,000 FEET WITH NO
SIGNIFICANT WEATHER AND/OR OBSTRUCTIONS TO VISIBILITY.


FLZ001>010-012>015-112-114-115-040400-
PANHANDLE FLORIDA

CITY           SKY/WX    TMP DP  RH WIND       PRES   REMARKS
PENSACOLA      CLEAR     70  64  81 S12       30.15R
PENSACOLA NAS  PTCLDY    73  65  75 SE12      30.15R
MILTON NAS     PTCLDY    65  62  90 SE5       30.16R
CRESTVIEW      CLEAR     64  61  90 CALM      30.18R
VALPARAISO     PTCLDY    71  64  76 S5        30.16R
MARY ESTHER    CLEAR     72  61  68 SE6       30.15R
PANAMA CITY    FAIR      67  63  87 CALM      30.16R
TYNDALL AFB    CLEAR     64  61  90 CALM      30.16R
APALACHICOLA   CLEAR     65  58  78 CALM      30.16R

STATION/POSITION SKY/WX   TEMP    WIND        PRES    WAVE   SWELL
                          AIR SEA DIR/SP/G            HT/PER HT/PER
                          (F)     (DEG/KT/KT) (MB)    (FT/S) (FT/S)
30.1N   87.6W              74 75  140/ 14/ 16 1020.0R   2/ 4
29.2N   88.2W              74 75  140/ 19/ 21 1020.0R   4/ 5
28.8N   86.0W              74 75  120/ 10/ 12 1020.9R   4/ 7   3/ 7
PANAMA CITY BEAC           73 76  180/  7/  9 1020.8R
CAPE SAN BLAS    NOT AVBL
TOWER C                    73      70/  3/  4 1021.0R
28.5N   84.5W              74 75   50/ 10/ 12 1020.5R   3/ 6   3/ 6

$$
FLZ011-016>038-118-127-128-134-139-239-040400-
NORTH FLORIDA

CITY           SKY/WX    TMP DP  RH WIND       PRES   REMARKS
MARIANNA       CLEAR     69  62  78 SW3       30.16R
TALLAHASSEE    PTCLDY    64  55  72 CALM      30.16R
PERRY          CLEAR     67  54  63 SE5       30.19R
CROSS CITY       N/A     70  49  47 E6        30.18R
LAKE CITY      FAIR      63  52  67 E5        30.21R
GAINESVILLE    CLEAR     63  51  65 E3        30.21R
MAYPORT NAS    CLEAR     69  59  70 E7        30.22R
JACKSONVILLE   CLEAR     61  55  81 CALM      30.22R
JAX NAS        CLEAR     73  59  61 E5        30.22R
JAX CRAIG      CLEAR     63  57  81 CALM      30.22R
JAX CECIL      CLEAR     55  54  94 CALM      30.22R
FERNANDINA BEA FAIR      70  59  68 CALM      30.21R
ST AUGUSTINE   CLEAR     69  63  81 CALM      30.22R

STATION/POSITION SKY/WX   TEMP    WIND        PRES    WAVE   SWELL
                          AIR SEA DIR/SP/G            HT/PER HT/PER
                          (F)     (DEG/KT/KT) (MB)    (FT/S) (FT/S)
SHELL POINT                72     270/  2/  2   N/A
KEATON BEACH               71     120/  9/ 11 1022.0R
CEDAR KEY                  72      80/ 16/ 17 1022.2R
FERNANDINA                        110/  2/  3 1022.3R
30.7N   81.3W                 72                N/A     2/13   2/13
MAYPORT                            80/  5/  7 1022.9R
31.4N   80.9W              71 71  170/  6/  8 1023.5R   2/13   2/13
ST AUGUSTINE               72 72  100/  5/  6 1023.9R

$$
FLZ040-043>046-052-053-057-058-063-144-040400-
INTERIOR CENTRAL FLORIDA

CITY           SKY/WX    TMP DP  RH WIND       PRES   REMARKS
OCALA          CLEAR     70  52  52 NE3       30.20R
THE VILLAGES     N/A     68  57  68 NE6       30.10R
LEESBURG       CLEAR     69  55  60 E8        30.20R
SANFORD        CLEAR     65  55  70 E7        30.20R
ORLANDO EXEC   CLEAR     68  55  63 E6        30.19R
ORLANDO INTL   MOCLDY    66  58  75 E6        30.19R
WINTER HAVEN   PTCLDY    70  57  63 E9        30.19R
LAKELAND       PTCLDY    70  57  64 E8        30.18R
BARTOW         FAIR      66  57  72 NE5       30.18S
OKEECHOBEE     PTCLDY    63  57  82 NE3       30.17R

$$
FLZ041-047-054-059-064-141-147-040400-
EAST CENTRAL FLORIDA

CITY           SKY/WX    TMP DP  RH WIND       PRES   REMARKS
DAYTONA BEACH  PTCLDY    66  55  67 CALM      30.21R
DELAND           N/A     63  55  77 CALM      30.22R
JFK SPACE CTR  CLEAR     64  56  74 E2        30.18R
CAPE CANAVERAL CLEAR     71  54  56 E7        30.18R
PATRICK AFB    PTCLDY    74  55  51 E12       30.17S
MELBOURNE      PTCLDY    74  54  49 E13       30.17S
VERO BEACH     PTCLDY    72  53  51 E10       30.17R
FT PIERCE      PTCLDY    73  54  51 E10       30.16S
STUART         PTCLDY    72  52  49 E12G18    30.17S

STATION/POSITION SKY/WX   TEMP    WIND        PRES    WAVE   SWELL
                          AIR SEA DIR/SP/G            HT/PER HT/PER
                          (F)     (DEG/KT/KT) (MB)    (FT/S) (FT/S)
28.5N   80.2W              74 78   70/ 12/ 16 1022.2R
28.9N   78.5W              73 78   60/ 12/ 16 1022.7R
TRIDENT PIER                       80/  6/ 12 1022.4R
28.4N   80.5W                 76                N/A     3/11   2/11
27.5N   80.2W                 78                N/A     5/11   2/11

$$
FLZ050-056-061-142-242-148-248-149-249-151-251-155-255-
160-260-040400-
WEST CENTRAL FLORIDA

CITY           SKY/WX    TMP DP  RH WIND       PRES   REMARKS
CRYSTAL RIVER  FAIR      70  54  56 E7        30.18R
INVERNESS      FAIR      68  25  19 CALM      30.19R
BROOKSVILLE    PTCLDY    71  55  56 E8        30.18R
CLEARWATER     PTCLDY    74  56  53 E15       30.15R
TAMPA INTL     MOCLDY    75  53  46 E9        30.16R
TAMPA EXEC     PTCLDY    72  55  56 E6        30.17R
PLANT CITY     PTCLDY    72  59  64 E6        30.19R
MACDILL AFB    CLEAR     72  57  59 SE15G21   30.15R
PETER O KNIGHT PTCLDY    73  57  56 E13G18    30.16R
ST PETERSBURG  PTCLDY    75  58  55 E21       30.14R
SARASOTA       CLEAR     71  53  52 E12       30.13R
VENICE         FAIR      72  59  64 E13       30.14R

STATION/POSITION SKY/WX   TEMP    WIND        PRES    WAVE   SWELL
                          AIR SEA DIR/SP/G            HT/PER HT/PER
                          (F)     (DEG/KT/KT) (MB)    (FT/S) (FT/S)
CEDAR KEY                  72      80/ 16/ 17 1022.2R
28.5N   84.5W              74 75   50/ 10/ 12 1020.5R   3/ 6   3/ 6
27.3N   84.2W                 77                N/A     4/ 6
CLEARWATER BEACH           77 77   90/  9/ 13 1020.4R
MIDDLE TAMPA BAY                  110/ 15/ 17 1020.3R
VENICE                     73 79   90/ 11/ 14 1020.2R

$$
FLZ066-069-070-075>078-162-262-165-265-040400-
SOUTHWEST FLORIDA AND KEYS

CITY           SKY/WX    TMP DP  RH WIND       PRES   REMARKS
PUNTA GORDA    PTCLDY    69  60  73 E8        30.15R
FT MYERS       PTCLDY    72  60  66 E12       30.13R
SOUTHWEST INTL MOCLDY    71  58  63 E12       30.14R
NAPLES         MOCLDY    73  59  61 E12       30.12R
MARCO ISLAND   CLEAR     70  55  60 E10       30.12R
IMMOKALEE      CLEAR     66  63  88 CALM      30.15R
MARATHON       PTCLDY    77  61  57 E15G24    30.09R
KEY WEST NAS   CLEAR     76  61  59 E14       30.08R
KEY WEST INTL  MOCLDY    76  62  62 E14G22    30.08R

STATION/POSITION SKY/WX   TEMP    WIND        PRES    WAVE   SWELL
                          AIR SEA DIR/SP/G            HT/PER HT/PER
                          (F)     (DEG/KT/KT) (MB)    (FT/S) (FT/S)
VENICE                     73 79   90/ 11/ 14 1020.2R
NAPLES                     74 78   60/  7/ 11 1019.4R
26.0N   85.6W              78 80   90/ 16/ 19 1018.5R   6/ 8   3/ 8
DRY TORTUGAS               78     100/ 23/ 25 1017.5R
NW FL BAY                  76      80/ 16/ 19 1018.8
SAND KEY                   77      90/ 25/ 29 1018.0R
SOMBRERO KEY               77      90/ 25/ 27 1018.3F
LONG KEY                   76 77   90/ 20/ 23 1019.8R
MOLASSES REEF              76 79   90/ 22/ 25 1018.9R

$$
FLZ067-068-071>074-168-172>174-040400-
SOUTHEAST FLORIDA

CITY           SKY/WX    TMP DP  RH WIND       PRES   REMARKS
W PALM BEACH   MOCLDY    74  52  46 E16       30.16R
FT LAUDER-EXEC PTCLDY    74  56  53 E16       30.13R
FT LAUDERDALE  PTCLDY    74  55  51 E13G22    30.13R
POMPANO BEACH  PTCLDY    74  55  51 E15G23    30.13R
PEMBROKE PINES PTCLDY    74  55  51 NE16      30.14R
OPA LOCKA      PTCLDY    74  55  51 E16       30.13R
MIAMI          PTCLDY    75  54  47 E16G23    30.12R
WEST KENDALL   PTCLDY    74  59  59 E10       30.12R
HOMESTEAD      PTCLDY    75  59  57 E13       30.11R

STATION/POSITION SKY/WX   TEMP    WIND        PRES    WAVE   SWELL
                          AIR SEA DIR/SP/G            HT/PER HT/PER
                          (F)     (DEG/KT/KT) (MB)    (FT/S) (FT/S)
PORT EVERGLADES            75      60/ 16/ 22 1020.2R
VIRGINIA KEY               76 78   80/ 14/ 20 1019.2R
LAKE WORTH                 74 79   70/ 17/ 22 1020.3R
SETTLEMENT POINT           73      60/ 19/ 21 1021.6S

$$



USA.gov is the U.S. government's official web portal to all federal, state and local government web resources and services.